This demonstration page uses our WeatherBlox Daily Observations layout. Learn more.

39.29038, -76.61219

Hourly Observations for January 24, 2019

Temp ( °F °C ) Dew Point ( °F °C ) Humidity (%) Winds ( mph kmh ) Pressure ( in mb ) Visibility ( mi km ) Precip ( " mm )
12:54 am 00:54 undefined 52 11.1 47 8.3 83 83 undefined N/A 29.83 1010 N/A 0 0
1:54 am 01:54 undefined 51 10.6 48 8.9 89 89 undefined N/A 29.77 1008 N/A 0 0
2:54 am 02:54 undefined 52 11.1 50 10 93 93 undefined N/A 29.74 1007 N/A 0.04 1.016
3:54 am 03:54 undefined 53 11.7 50 10 89 89 undefined N/A 29.68 1005 N/A 0.06 1.524
4:54 am 04:54 undefined 52 11.1 50 10 93 93 undefined N/A 29.62 1003 N/A 0.05 1.27
5:54 am 05:54 undefined 52 11.1 50 10 93 93 undefined N/A 29.59 1002 N/A 0.04 1.016
6:54 am 06:54 undefined 53 11.7 50 10 89 89 undefined N/A 29.53 1000 N/A 0.05 1.27
7:54 am 07:54 undefined 54 12.2 51 10.6 90 90 undefined N/A 29.5 999 N/A 0.02 0.508
8:54 am 08:54 undefined 53 11.7 51 10.6 93 93 undefined N/A 29.47 998 N/A 0.08 2.032
9:54 am 09:54 undefined 54 12.2 52 11.1 93 93 undefined N/A 29.44 997 N/A 0.06 1.524
10:54 am 10:54 undefined 55 12.8 53 11.7 93 93 undefined N/A 29.38 995 N/A 0.06 1.524
11:54 am 11:54 undefined 55 12.8 52 11.1 90 90 undefined N/A 29.38 995 N/A 0.21 5.334
12:54 pm 12:54 undefined 54 12.2 50 10 87 87 undefined N/A 29.38 995 N/A 0.11 2.794
1:54 pm 13:54 undefined 49 9.4 44 6.7 83 83 undefined N/A 29.44 997 N/A 0.13 3.302
2:54 pm 14:54 undefined 48 8.9 40 4.4 74 74 undefined N/A 29.47 998 N/A 0.09 2.286
3:54 pm 15:54 undefined 45 7.2 30 -1.1 56 56 undefined N/A 29.56 1001 N/A 0 0
4:54 pm 16:54 undefined 42 5.6 28 -2.2 58 58 undefined N/A 29.65 1004 N/A 0 0
5:54 pm 17:54 undefined 40 4.4 25 -3.9 55 55 undefined N/A 29.71 1006 N/A 0 0
6:54 pm 18:54 undefined 38 3.3 23 -5 55 55 undefined N/A 29.77 1008 N/A 0 0
7:54 pm 19:54 undefined 37 2.8 22 -5.6 54 54 undefined N/A 29.77 1008 N/A 0 0
8:54 pm 20:54 undefined 37 2.8 21 -6.1 52 52 undefined N/A 29.83 1010 N/A 0 0
9:54 pm 21:54 undefined 36 2.2 22 -5.6 57 57 undefined N/A 29.85 1011 N/A 0 0
10:54 pm 22:54 undefined 35 1.7 22 -5.6 59 59 undefined N/A 29.85 1011 N/A 0 0
11:54 pm 23:54 undefined 35 1.7 22 -5.6 59 59 undefined N/A 29.88 1012 N/A 0 0

Powered by AerisWeather